Location: Newark
(46.7000°N, 60.6000°W)
Time: 05:09:24
(UTC+00:00)

Transit 2A Rocket - Pass Details

Date: 04 November 2020
Orbit: 588 x 914 km, 66.7° (Epoch: 29 November)

Event Time Altitude Azimuth Distance (km) Brightness Sun altitude
Rises 14:16:02 0° 267° (W) 3,527 8.2 24.5°
Reaches altitude 10° 14:19:24 10° 284° (WNW) 2,560 7.4 24.7°
Maximum altitude 14:23:30 19° 328° (NNW) 1,959 6.7 25.0°
Drops below altitude 10° 14:27:27 10° 12° (NNE) 2,450 7.2 25.2°
Sets 14:30:36 0° 31° (NNE) 3,324 8.0 25.4°
